Location: Baumgartsau
(48.4586°N, 14.0864°E)
Time: 17:30:55
(UTC+00:00)

BREEZE M DEB (TANK) - Pass Details

Date: 22 May 2021
Orbit: 296 x 11843 km, 49.5° (Epoch: 14 June)

Event Time Altitude Azimuth Distance (km) Brightness Sun altitude
Rises 19:29:53 0° 295° (WNW) 5,244 9.1 -6.6°
Reaches altitude 10° 19:32:09 10° 292° (WNW) 4,814 8.5 -6.8°
Maximum altitude 19:48:05 62° 217° (SW) 5,393 7.2 -8.8°
Enters shadow 20:48:49 15° 156° (SSE) 15,100 8.9 -15.0°
